This is the latest recevied weather packets stored in our database for station/object KB2FWP. If no packets are shown the sender has not sent any weather packets the latest 10 day(s).
| Time | Temp. | Humidity | Pressure | Rain* | Wind** | Luminosity | Snow |
|---|---|---|---|---|---|---|---|
| 1787665527 | 22.78° C | 68% | 1017.5 hPa | 0 mm | - | - | - |
| 1787664625 | 22.22° C | 70% | 1017.6 hPa | 0 mm | - | - | - |
| 1787663729 | 21.67° C | 71% | 1017.5 hPa | 0 mm | - | - | - |
| 1787662822 | 21.11° C | 73% | 1017.4 hPa | 0 mm | - | - | - |
| 1787661916 | 20.56° C | 73% | 1017.5 hPa | 0 mm | - | - | - |
| 1787661013 | 20° C | 75% | 1017.4 hPa | 0 mm | - | - | - |
| 1787660126 | 20° C | 76% | 1017.4 hPa | 0 mm | - | - | - |
| 1787659212 | 19.44° C | 77% | 1017.4 hPa | 0 mm | - | - | - |
| 1787658310 | 18.89° C | 79% | 1017.3 hPa | 0 mm | - | - | - |
| 1787657421 | 18.33° C | 81% | 1017.4 hPa | 0 mm | - | - | - |
| 1787656509 | 17.78° C | 82% | 1017.4 hPa | 0 mm | - | - | - |
| 1787655609 | 17.22° C | 83% | 1017.3 hPa | 0 mm | - | - | - |
| 1787654716 | 17.22° C | 83% | 1017 hPa | 0 mm | - | - | - |
| 1787653805 | 17.22° C | 82% | 1017.1 hPa | 0 mm | - | - | - |
| 1787652905 | 17.22° C | 82% | 1016.9 hPa | 0 mm | - | - | - |
| 1787652003 | 17.22° C | 82% | 1016.9 hPa | 0 mm | - | - | - |
| 1787651102 | 17.22° C | 81% | 1016.8 hPa | 0 mm | - | - | - |
| 1787650258 | 17.78° C | 80% | 1016.6 hPa | 0 mm | - | - | - |
| 1787649357 | 17.78° C | 80% | 1016.4 hPa | 0 mm | - | - | - |
| 1787648460 | 17.78° C | 79% | 1016.2 hPa | 0 mm | - | - | - |
| 1787647558 | 17.78° C | 79% | 1016.3 hPa | 0 mm | - | - | - |
| 1787646653 | 17.78° C | 78% | 1016.2 hPa | 0 mm | - | - | - |
| 1787645756 | 17.78° C | 77% | 1016.2 hPa | 0 mm | - | - | - |
| 1787644850 | 18.33° C | 76% | 1016.1 hPa | 0 mm | - | - | - |
| 1787643949 | 18.33° C | 75% | 1016.2 hPa | 0 mm | - | - | - |
* Rain latest hour (hover to see other rain measurements)
** Current wind speed in m/s (hover to see current wind gust speed)